[[{"header":{"parameterUnit":"m.s-1","parameterCategory":1,"la1":30.2991,"la2":30.254,"lo1":-89.0895,"lo2":-89.0444,"dy":0.0017,"dx":0.0017,"nx":28,"ny":28,"refTime":"2024-08-07T09:00:00:Z","depth":0,"parameterNumber":2,"parameterNumberName":"U-component_of_WINDS"},"data":[0,0,0,0,0,0,0,0,0,0,0,0,0,0,0,0,0,0,0,0,0,0,0,0,0,0,0,0,0,0,0,0,0,0,0,0,0,0,0,0,0,0,0,0,0,0,0,0,0,0,0,0,0,0,0,0,0,0,2.6973,2.6974,0,2.7049,2.705,2.7051,2.7014,2.7012,2.701,2.7008,2.7088,2.7091,2.7095,0,0,0,0,0,0,0,0,0,0,0,0,0,2.6798,2.6801,2.6973,2.6974,2.6975,2.7049,2.705,2.7051,2.7014,2.7012,2.701,2.7007,2.7086,2.7091,2.7096,0,0,0,0,0,0,0,0,0,0,0,0,0,2.6874,2.6802,2.6973,2.6965,2.6965,2.7049,2.705,2.7051,2.7015,2.7012,2.7009,2.7006,2.7085,2.709,2.7096,2.7192,0,0,2.7114,2.7117,0,0,0,0,0,0,0,0,2.687,2.688,2.6965,2.6966,2.6966,2.7019,2.7017,2.7099,2.7016,2.6996,2.7008,2.7005,2.7067,2.7074,2.7095,2.7195,2.7199,2.7115,2.7118,2.7121,2.7123,0,0,0,0,0,0,0,2.6864,2.6877,2.7003,2.6967,2.6967,2.6959,2.6967,2.7033,2.7047,2.6998,2.6995,2.7005,2.7067,2.709,2.7097,2.72,2.7115,2.712,2.7124,2.7126,2.7385,2.7389,0,0,0,0,0,0,2.6859,2.6873,2.7001,2.7005,2.691,2.6965,2.6973,2.7005,2.7046,2.705,2.7007,2.7003,2.7081,2.709,2.7099,2.7216,2.7121,2.7126,2.713,2.7382,2.7386,2.739,0,0,0,0,0,0,2.6856,2.6871,2.6998,2.6939,2.6954,2.6971,2.7007,2.7008,2.7031,2.7054,2.7056,2.7027,2.7079,2.7091,2.717,2.7218,2.7129,2.7135,2.7378,2.7383,2.7388,2.7448,0,0,0,0,0,0,2.6851,2.687,2.6906,2.694,2.6957,2.7066,2.701,2.7012,2.7041,2.7036,2.7073,2.7077,2.7078,2.7161,2.7176,2.7225,2.7139,2.7374,2.7381,2.7386,2.7442,2.7455,2.7466,0,0,0,0,0,2.6845,2.6919,2.6908,2.6923,2.7002,2.7069,2.7079,2.7078,2.7045,2.7082,2.7097,2.7076,2.721,2.7169,2.7185,2.7237,2.7371,2.7379,2.7386,2.7437,2.7452,2.7465,0,0,0,0,0,0,2.689,2.6923,2.6911,2.6999,2.7031,2.7062,2.7108,2.7094,2.7137,2.713,2.7128,2.7137,2.7219,2.7235,2.7189,2.7333,2.7286,2.7297,2.7319,2.7334,2.7345,2.734,2.7144,0,0,0,0,0,2.6911,2.6961,2.6988,2.7063,2.708,2.7092,2.712,2.7117,2.7151,2.7164,2.7185,2.7219,2.7269,2.7302,2.7349,2.7444,2.7453,2.7488,2.75,2.7509,2.7519,2.7573,2.759,2.7415,2.7415,2.7414,0,0,2.6953,2.6977,2.701,2.7073,2.7097,2.7151,2.7103,2.7161,2.7202,2.7173,2.7249,2.7266,2.7304,2.7392,2.7431,2.7408,2.757,2.7519,2.7526,2.7531,2.7583,2.7599,2.7614,2.742,2.7419,2.7418,0,0,2.7058,2.7081,2.7147,2.7173,2.7212,2.7219,2.7235,2.7269,2.7279,2.7355,2.7336,2.7384,2.747,2.7499,2.7524,2.7643,2.7626,2.7658,2.772,2.7773,2.7787,2.7799,2.7843,2.7859,2.7668,2.7668,2.7668,0,2.7106,2.7186,2.7183,2.7243,2.7272,2.7249,2.7317,2.7343,2.7395,2.7416,2.739,2.7499,2.7522,2.7618,2.7647,2.7668,2.7688,2.7654,2.7785,2.7797,2.7808,2.7851,2.7867,2.7672,2.7671,2.7671,2.7671,0,2.7244,2.7299,2.7348,2.74,2.7434,2.7498,2.7506,2.7542,2.7536,2.7547,2.7626,2.7654,2.7708,2.773,2.7724,2.7825,2.781,2.7784,2.7737,2.7829,2.7869,2.7885,2.7677,2.7676,2.7675,2.7674,0,0,2.7379,2.7429,2.7448,2.7472,2.7513,2.7557,2.762,2.7673,2.7704,2.7741,2.7796,2.787,2.7847,2.7877,2.7874,2.792,2.8015,2.7889,2.789,2.7913,2.8131,2.8151,2.817,2.8004,2.8007,2.801,2.8129,0,2.7489,2.76,2.76,2.7703,2.7755,2.7735,2.7791,2.7823,2.7836,2.7883,2.7897,2.795,2.7915,2.7933,2.7978,2.7994,2.8059,2.7986,2.8057,2.8059,2.8049,2.819,2.8211,2.8322,2.8144,2.8146,2.8148,0,2.7631,2.7673,2.7782,2.7818,2.784,2.789,2.7939,2.7984,2.8021,2.8027,2.8061,2.8052,2.8119,2.8069,2.8162,2.8112,2.8141,2.8154,2.8158,2.8166,2.811,2.8203,2.8357,2.8375,2.8172,2.817,2.8169,0,2.7721,2.7805,2.7881,2.7902,2.7946,2.7982,2.8002,2.8036,2.8068,2.8112,2.8133,2.8184,2.8212,2.8252,2.8258,2.8221,2.8352,2.8302,2.8361,2.8361,2.839,2.8388,2.8552,2.8406,2.8406,2.8406,2.8405,0,2.7844,2.7911,2.7923,2.797,2.8046,2.8046,2.8121,2.8138,2.8169,2.822,2.8206,2.8254,2.8259,2.8309,2.8314,2.8392,2.8404,2.8412,2.8413,2.8414,2.8414,2.8434,2.8427,2.841,2.8409,2.8408,2.8408,0,2.7958,2.7968,2.805,2.8085,2.8095,2.815,2.818,2.8226,2.8237,2.8302,2.8318,2.8336,2.8395,2.8405,2.8474,2.8478,2.8571,2.8563,2.8559,2.8558,2.8617,2.8612,2.8801,2.8827,2.8662,2.8664,2.8665,0,2.8036,2.8088,2.8128,2.8162,2.8184,2.8237,2.827,2.8273,2.8308,2.8356,2.8397,2.8454,2.85,2.8595,2.8616,2.8669,2.8663,2.8726,2.8671,2.8672,2.8667,2.8664,2.8671,2.8737,2.8739,2.874,2.8741,0,2.8175,2.8178,2.8226,2.8277,2.8317,2.8357,2.8395,2.8423,2.8431,2.8472,2.8532,2.8568,2.8639,2.8697,2.8751,2.8773,2.876,2.8759,2.8775,2.8778,2.8774,2.8779,2.8589,2.8754,2.8753,2.8752,2.8751,2.8751,2.8274,2.832,2.8357,2.8412,2.8441,2.8477,2.8522,2.854,2.859,2.8648,2.8647,2.8714,2.8752,2.8822,2.8848,2.8901,2.8881,2.8904,2.8911,2.8917,2.8924,2.8764,2.891,2.891,2.891,2.8909,2.8909,0,2.8414,2.8437,2.8487,2.8541,2.8585,2.8568,2.861,2.8648,2.8707,2.8743,2.8789,2.886,2.8916,2.8942,2.8998,2.9036,2.9031,2.9051,2.9049,2.9054,2.8937,2.8918,2.9053,2.9053,2.9053,2.9053,2.9053,2.9053,2.8492,2.8569,2.8577,2.8669,2.8692,2.8757,2.8782,2.8817,2.8846,2.8925,2.8972,2.8988,2.9021,2.908,2.9132,2.9138,2.916,2.9183,2.9186,2.9077,2.9062,2.9048,2.903,2.9187,2.9187,2.9299,2.93,2.9301]},{"header":{"parameterUnit":"m.s-1","parameterCategory":1,"la1":30.2991,"la2":30.254,"lo1":-89.0895,"lo2":-89.0444,"dy":0.0017,"dx":0.0017,"nx":28,"ny":28,"refTime":"2024-08-07T09:00:00:Z","depth":0,"parameterNumber":3,"parameterNumberName":"V-component_of_WINDS"},"data":[0,0,0,0,0,0,0,0,0,0,0,0,0,0,0,0,0,0,0,0,0,0,0,0,0,0,0,0,0,0,0,0,0,0,0,0,0,0,0,0,0,0,0,0,0,0,0,0,0,0,0,0,0,0,0,0,0,0,-0.5148,-0.5148,0,-0.5126,-0.5125,-0.5125,-0.512,-0.512,-0.512,-0.512,-0.5095,-0.5095,-0.5094,0,0,0,0,0,0,0,0,0,0,0,0,0,-0.5185,-0.5184,-0.5148,-0.5148,-0.5148,-0.5126,-0.5125,-0.5125,-0.5119,-0.512,-0.512,-0.512,-0.5096,-0.5095,-0.5094,0,0,0,0,0,0,0,0,0,0,0,0,0,-0.5166,-0.5184,-0.5148,-0.5142,-0.5141,-0.5126,-0.5125,-0.5125,-0.5119,-0.512,-0.512,-0.512,-0.5096,-0.5095,-0.5094,-0.5082,0,0,-0.509,-0.509,0,0,0,0,0,0,0,0,-0.5167,-0.5165,-0.5143,-0.5143,-0.5142,-0.5126,-0.5129,-0.5111,-0.5119,-0.5128,-0.512,-0.512,-0.5105,-0.5103,-0.5099,-0.5081,-0.508,-0.509,-0.5089,-0.5089,-0.5088,0,0,0,0,0,0,0,-0.5168,-0.5166,-0.5139,-0.5143,-0.5142,-0.514,-0.5138,-0.5126,-0.5115,-0.5127,-0.5127,-0.5124,-0.5105,-0.51,-0.5098,-0.5079,-0.509,-0.5089,-0.5088,-0.5088,-0.5051,-0.505,0,0,0,0,0,0,-0.5171,-0.5167,-0.514,-0.5139,-0.5155,-0.5139,-0.5137,-0.5131,-0.5116,-0.5114,-0.5124,-0.5124,-0.5102,-0.5099,-0.5097,-0.5082,-0.5089,-0.5088,-0.5087,-0.5051,-0.5051,-0.505,0,0,0,0,0,0,-0.5172,-0.5169,-0.5141,-0.5153,-0.5149,-0.5138,-0.5132,-0.513,-0.5125,-0.5113,-0.5111,-0.5121,-0.5102,-0.5099,-0.5086,-0.5081,-0.5087,-0.5086,-0.5051,-0.5051,-0.505,-0.5052,0,0,0,0,0,0,-0.5173,-0.5169,-0.5165,-0.5153,-0.5148,-0.513,-0.5131,-0.5129,-0.5123,-0.5123,-0.511,-0.5108,-0.5102,-0.5088,-0.5085,-0.508,-0.5085,-0.5052,-0.5051,-0.505,-0.5052,-0.5052,-0.5051,0,0,0,0,0,-0.5174,-0.5166,-0.5165,-0.5161,-0.5143,-0.513,-0.5128,-0.5121,-0.5123,-0.5118,-0.5111,-0.5108,-0.5082,-0.5086,-0.5083,-0.5077,-0.5052,-0.5051,-0.5051,-0.5053,-0.5052,-0.5051,0,0,0,0,0,0,-0.5177,-0.5164,-0.5163,-0.515,-0.5142,-0.5129,-0.5123,-0.5121,-0.5111,-0.5111,-0.5103,-0.51,-0.5088,-0.5081,-0.5086,-0.5065,-0.5067,-0.5066,-0.507,-0.5069,-0.5068,-0.507,-0.5084,0,0,0,0,0,-0.5177,-0.5168,-0.5157,-0.5147,-0.5143,-0.5134,-0.5128,-0.5124,-0.5114,-0.511,-0.5102,-0.5092,-0.5082,-0.5075,-0.5065,-0.5052,-0.5048,-0.5046,-0.5046,-0.5045,-0.5044,-0.5036,-0.5034,-0.5048,-0.5048,-0.5048,0,0,-0.5175,-0.5167,-0.5162,-0.5148,-0.514,-0.5131,-0.5131,-0.5121,-0.5114,-0.5109,-0.5096,-0.5089,-0.5078,-0.5065,-0.5059,-0.5059,-0.5039,-0.5044,-0.5044,-0.5043,-0.5035,-0.5034,-0.5033,-0.5048,-0.5048,-0.5048,0,0,-0.5168,-0.5161,-0.5152,-0.5144,-0.5133,-0.5128,-0.5125,-0.5114,-0.5109,-0.5096,-0.5092,-0.5083,-0.5066,-0.5058,-0.5051,-0.5041,-0.5038,-0.5037,-0.5034,-0.5026,-0.5025,-0.5024,-0.502,-0.5018,-0.5036,-0.5036,-0.5036,0,-0.5167,-0.5153,-0.5147,-0.5137,-0.5131,-0.5127,-0.5117,-0.511,-0.5096,-0.5091,-0.5093,-0.507,-0.5062,-0.5047,-0.5044,-0.5039,-0.5036,-0.5039,-0.5026,-0.5025,-0.5024,-0.5019,-0.5018,-0.5036,-0.5036,-0.5036,-0.5036,0,-0.5152,-0.5143,-0.5137,-0.5124,-0.5117,-0.5107,-0.5099,-0.5092,-0.5089,-0.5083,-0.507,-0.506,-0.5048,-0.5044,-0.504,-0.5028,-0.5028,-0.5028,-0.5029,-0.5023,-0.5018,-0.5017,-0.5036,-0.5036,-0.5036,-0.5036,0,0,-0.5146,-0.513,-0.5128,-0.5122,-0.5109,-0.5101,-0.5091,-0.508,-0.5074,-0.5064,-0.5055,-0.5041,-0.504,-0.5033,-0.5028,-0.5021,-0.5013,-0.5022,-0.5021,-0.502,-0.4998,-0.4997,-0.4996,-0.5011,-0.5011,-0.501,-0.4998,0,-0.5136,-0.5119,-0.5113,-0.5098,-0.5088,-0.5084,-0.5075,-0.5066,-0.506,-0.5051,-0.5044,-0.5034,-0.5034,-0.503,-0.5023,-0.5015,-0.5008,-0.5016,-0.5002,-0.5001,-0.5004,-0.4993,-0.4993,-0.4982,-0.4997,-0.4996,-0.4996,0,-0.5123,-0.5113,-0.5097,-0.5086,-0.5082,-0.5074,-0.5062,-0.5054,-0.5043,-0.504,-0.5031,-0.5027,-0.5016,-0.5019,-0.5003,-0.5008,-0.5002,-0.4997,-0.4997,-0.4995,-0.4998,-0.499,-0.4979,-0.4977,-0.4994,-0.4994,-0.4994,0,-0.5119,-0.5102,-0.509,-0.5085,-0.5072,-0.5066,-0.506,-0.505,-0.5043,-0.5033,-0.5028,-0.5017,-0.5011,-0.5002,-0.4995,-0.4997,-0.4979,-0.4981,-0.4975,-0.4975,-0.497,-0.4971,-0.4957,-0.4968,-0.4968,-0.4968,-0.4968,0,-0.5108,-0.5098,-0.5088,-0.5081,-0.507,-0.5063,-0.5052,-0.5046,-0.5037,-0.5028,-0.5023,-0.5015,-0.5006,-0.4996,-0.4991,-0.4978,-0.4975,-0.4971,-0.4969,-0.4971,-0.4971,-0.4966,-0.4967,-0.4967,-0.4967,-0.4967,-0.4967,0,-0.5101,-0.5094,-0.5081,-0.5069,-0.5066,-0.5058,-0.5048,-0.504,-0.5034,-0.5023,-0.502,-0.501,-0.4998,-0.499,-0.4975,-0.4971,-0.4957,-0.4956,-0.4961,-0.496,-0.4953,-0.4954,-0.4935,-0.4932,-0.4946,-0.4946,-0.4946,0,-0.5095,-0.5087,-0.5075,-0.5068,-0.5063,-0.5053,-0.5046,-0.5039,-0.5032,-0.5019,-0.5013,-0.5001,-0.4991,-0.4972,-0.4963,-0.4952,-0.495,-0.4944,-0.4948,-0.495,-0.4949,-0.4949,-0.4948,-0.4943,-0.4943,-0.4943,-0.4943,0,-0.5083,-0.508,-0.5071,-0.506,-0.5052,-0.5043,-0.5034,-0.5029,-0.502,-0.5012,-0.5,-0.4993,-0.4977,-0.4965,-0.4953,-0.4946,-0.4943,-0.4942,-0.494,-0.4941,-0.4944,-0.4941,-0.4958,-0.4942,-0.4942,-0.4943,-0.4943,-0.4943,-0.5076,-0.5069,-0.5059,-0.5048,-0.5041,-0.5032,-0.5025,-0.5018,-0.5008,-0.4995,-0.4991,-0.4979,-0.4968,-0.4951,-0.4944,-0.4934,-0.4934,-0.4931,-0.493,-0.4929,-0.4929,-0.4946,-0.4931,-0.4931,-0.4931,-0.4931,-0.4931,0,-0.5064,-0.5057,-0.5048,-0.5035,-0.5027,-0.5025,-0.5015,-0.5008,-0.4997,-0.4987,-0.4978,-0.4964,-0.4952,-0.4942,-0.493,-0.4923,-0.4922,-0.492,-0.492,-0.4919,-0.4929,-0.4932,-0.4922,-0.4922,-0.4922,-0.4922,-0.4922,-0.4922,-0.5057,-0.5044,-0.504,-0.5024,-0.5017,-0.5005,-0.4999,-0.4991,-0.4983,-0.4968,-0.4958,-0.4952,-0.4943,-0.493,-0.4918,-0.4916,-0.4911,-0.491,-0.4907,-0.4917,-0.4918,-0.4919,-0.4922,-0.4909,-0.4909,-0.4897,-0.4897,-0.4897]}]]